Time,TemperatureF,DewpointF,PressureIn,WindDirection,WindDirectionDegrees,WindSpeedMPH,WindSpeedGustMPH,Humidity,HourlyPrecipIn,Conditions,Clouds,dailyrainin,SoftwareType,DateUTC
2013-03-21 00:00:00,38.7,23.9,29.80,ENE,71,0.0,0.0,55,0.00,,---,0.00,VWS V14.01,2013-03-21 06:00:00,
2013-03-21 00:05:00,38.8,24.0,29.79,ENE,71,0.0,0.0,55,0.00,,---,0.00,VWS V14.01,2013-03-21 06:05:00,
2013-03-21 00:10:00,38.8,23.6,29.79,ENE,71,0.0,0.0,54,0.00,,---,0.00,VWS V14.01,2013-03-21 06:10:00,
2013-03-21 00:15:00,38.6,23.8,29.80,ENE,71,0.0,0.0,55,0.00,,---,0.00,VWS V14.01,2013-03-21 06:15:00,
2013-03-21 00:20:00,38.6,23.4,29.80,ENE,71,0.0,0.0,54,0.00,,---,0.00,VWS V14.01,2013-03-21 06:20:00,
2013-03-21 00:25:00,38.6,23.4,29.80,ENE,71,0.0,0.0,54,0.00,,---,0.00,VWS V14.01,2013-03-21 06:25:00,
2013-03-21 00:30:00,38.7,23.5,29.79,ENE,71,0.0,0.0,54,0.00,,---,0.00,VWS V14.01,2013-03-21 06:30:00,
2013-03-21 00:35:00,38.8,24.0,29.79,ENE,71,0.0,0.0,55,0.00,,---,0.00,VWS V14.01,2013-03-21 06:35:00,
2013-03-21 00:40:00,38.8,24.0,29.79,ENE,71,0.0,0.0,55,0.00,,---,0.00,VWS V14.01,2013-03-21 06:40:00,
2013-03-21 00:45:00,38.8,24.0,29.79,ENE,75,0.0,0.0,55,0.00,,---,0.00,VWS V14.01,2013-03-21 06:45:00,
2013-03-21 00:50:00,38.8,24.0,29.79,ENE,75,0.0,0.0,55,0.00,,---,0.00,VWS V14.01,2013-03-21 06:50:00,
2013-03-21 00:55:00,38.6,23.8,29.78,ENE,75,0.0,0.0,55,0.00,,---,0.00,VWS V14.01,2013-03-21 06:55:00,
2013-03-21 01:00:00,38.5,24.2,29.79,ENE,75,0.0,0.0,56,0.00,,---,0.00,VWS V14.01,2013-03-21 07:00:00,
2013-03-21 01:05:00,38.3,24.0,29.79,ENE,74,0.0,0.0,56,0.00,,---,0.00,VWS V14.01,2013-03-21 07:05:00,
2013-03-21 01:10:00,38.1,23.8,29.78,ENE,74,0.0,0.0,56,0.00,,---,0.00,VWS V14.01,2013-03-21 07:10:00,
2013-03-21 01:15:00,37.9,23.6,29.78,ENE,74,0.0,0.0,56,0.00,,---,0.00,VWS V14.01,2013-03-21 07:15:00,
2013-03-21 01:20:00,37.7,23.9,29.78,ENE,74,0.0,0.0,57,0.00,,---,0.00,VWS V14.01,2013-03-21 07:20:00,
2013-03-21 01:25:00,37.5,23.7,29.78,ENE,74,0.0,0.0,57,0.00,,---,0.00,VWS V14.01,2013-03-21 07:25:00,
2013-03-21 01:30:00,37.3,23.5,29.78,ENE,74,0.0,0.0,57,0.00,,---,0.00,VWS V14.01,2013-03-21 07:30:00,
2013-03-21 01:35:00,37.2,23.4,29.78,ENE,74,0.0,0.0,57,0.00,,---,0.00,VWS V14.01,2013-03-21 07:35:00,
2013-03-21 01:40:00,37.2,23.4,29.78,ENE,74,0.0,0.0,57,0.00,,---,0.00,VWS V14.01,2013-03-21 07:40:00,
2013-03-21 01:45:00,37.2,23.4,29.78,ENE,74,0.0,0.0,57,0.00,,---,0.00,VWS V14.01,2013-03-21 07:45:00,
2013-03-21 01:50:00,37.1,23.3,29.78,ENE,74,0.0,0.0,57,0.00,,---,0.00,VWS V14.01,2013-03-21 07:50:00,
2013-03-21 01:55:00,37.0,23.6,29.78,ENE,74,0.0,0.0,58,0.00,,---,0.00,VWS V14.01,2013-03-21 07:55:00,
2013-03-21 02:00:00,36.9,23.1,29.77,ENE,74,0.0,0.0,57,0.00,,---,0.00,VWS V14.01,2013-03-21 08:00:00,
2013-03-21 02:05:00,36.8,23.4,29.77,ENE,74,0.0,0.0,58,0.00,,---,0.00,VWS V14.01,2013-03-21 08:05:00,
2013-03-21 02:10:00,36.6,23.2,29.77,ENE,74,0.0,0.0,58,0.00,,---,0.00,VWS V14.01,2013-03-21 08:10:00,
2013-03-21 02:15:00,36.5,23.5,29.76,ENE,74,0.0,0.0,59,0.00,,---,0.00,VWS V14.01,2013-03-21 08:15:00,
2013-03-21 02:20:00,36.4,23.0,29.76,ENE,74,0.0,0.0,58,0.00,,---,0.00,VWS V14.01,2013-03-21 08:20:00,
2013-03-21 02:25:00,36.2,23.3,29.76,ENE,74,0.0,0.0,59,0.00,,---,0.00,VWS V14.01,2013-03-21 08:25:00,
2013-03-21 02:30:00,36.1,23.2,29.76,ENE,75,0.0,0.0,59,0.00,,---,0.00,VWS V14.01,2013-03-21 08:30:00,
2013-03-21 02:35:00,35.9,23.0,29.76,ENE,74,0.0,0.0,59,0.00,,---,0.00,VWS V14.01,2013-03-21 08:35:00,
2013-03-21 02:40:00,35.8,22.9,29.76,ENE,74,0.0,0.0,59,0.00,,---,0.00,VWS V14.01,2013-03-21 08:40:00,
2013-03-21 02:45:00,35.7,22.8,29.76,SE,145,0.0,0.0,59,0.00,,---,0.00,VWS V14.01,2013-03-21 08:45:00,
2013-03-21 02:50:00,35.7,22.8,29.76,SE,145,0.0,0.0,59,0.00,,---,0.00,VWS V14.01,2013-03-21 08:50:00,
2013-03-21 02:55:00,35.7,22.8,29.76,SE,145,0.0,0.0,59,0.00,,---,0.00,VWS V14.01,2013-03-21 08:55:00,
2013-03-21 03:00:00,35.6,22.7,29.75,SE,145,0.0,0.0,59,0.00,,---,0.00,VWS V14.01,2013-03-21 09:00:00,
2013-03-21 03:05:00,35.5,22.6,29.75,SE,145,0.0,0.0,59,0.00,,---,0.00,VWS V14.01,2013-03-21 09:05:00,
2013-03-21 03:10:00,35.6,22.7,29.75,SSE,147,0.0,0.0,59,0.00,,---,0.00,VWS V14.01,2013-03-21 09:10:00,
2013-03-21 03:15:00,35.6,22.7,29.75,SSE,147,0.0,0.0,59,0.00,,---,0.00,VWS V14.01,2013-03-21 09:15:00,
2013-03-21 03:20:00,35.6,22.7,29.74,SSE,147,0.0,0.0,59,0.00,,---,0.00,VWS V14.01,2013-03-21 09:20:00,
2013-03-21 03:25:00,35.5,23.0,29.74,SE,146,0.0,0.0,60,0.00,,---,0.00,VWS V14.01,2013-03-21 09:25:00,
2013-03-21 03:30:00,35.3,22.8,29.74,SE,146,0.0,0.0,60,0.00,,---,0.00,VWS V14.01,2013-03-21 09:30:00,
2013-03-21 03:35:00,35.0,22.9,29.73,SSE,147,0.0,0.0,61,0.00,,---,0.00,VWS V14.01,2013-03-21 09:35:00,
2013-03-21 03:40:00,34.8,23.1,29.73,SSE,147,0.0,0.0,62,0.00,,---,0.00,VWS V14.01,2013-03-21 09:40:00,
2013-03-21 03:45:00,34.4,23.1,29.73,SSE,147,0.0,0.0,63,0.00,,---,0.00,VWS V14.01,2013-03-21 09:45:00,
2013-03-21 03:50:00,34.4,23.1,29.73,SSE,147,0.0,0.0,63,0.00,,---,0.00,VWS V14.01,2013-03-21 09:50:00,
2013-03-21 03:55:00,34.4,23.1,29.73,SSE,147,0.0,0.0,63,0.00,,---,0.00,VWS V14.01,2013-03-21 09:55:00,
2013-03-21 04:00:00,34.2,23.3,29.73,SSE,147,0.0,0.0,64,0.00,,---,0.00,VWS V14.01,2013-03-21 10:00:00,
2013-03-21 04:05:00,34.3,23.4,29.73,SSE,147,0.0,0.0,64,0.00,,---,0.00,VWS V14.01,2013-03-21 10:05:00,
2013-03-21 04:10:00,34.4,23.1,29.72,SSE,148,0.0,0.0,63,0.00,,---,0.00,VWS V14.01,2013-03-21 10:10:00,
2013-03-21 04:15:00,34.4,23.1,29.72,SSE,148,0.0,0.0,63,0.00,,---,0.00,VWS V14.01,2013-03-21 10:15:00,
2013-03-21 04:20:00,34.6,23.3,29.72,SW,215,0.0,0.0,63,0.00,,---,0.00,VWS V14.01,2013-03-21 10:20:00,
2013-03-21 04:25:00,34.8,23.1,29.72,SW,217,0.0,3.0,62,0.00,,---,0.00,VWS V14.01,2013-03-21 10:25:00,
2013-03-21 04:30:00,34.8,23.1,29.72,SW,217,0.0,0.0,62,0.00,,---,0.00,VWS V14.01,2013-03-21 10:30:00,
2013-03-21 04:35:00,34.8,23.1,29.72,SW,217,0.0,0.0,62,0.00,,---,0.00,VWS V14.01,2013-03-21 10:35:00,
2013-03-21 04:40:00,34.7,23.0,29.71,SW,217,0.0,0.0,62,0.00,,---,0.00,VWS V14.01,2013-03-21 10:40:00,
2013-03-21 04:45:00,34.5,22.8,29.70,SW,217,0.0,0.0,62,0.00,,---,0.00,VWS V14.01,2013-03-21 10:45:00,
2013-03-21 04:50:00,34.4,22.7,29.70,SW,217,0.0,0.0,62,0.00,,---,0.00,VWS V14.01,2013-03-21 10:50:00,
2013-03-21 04:55:00,34.4,22.7,29.70,SW,217,0.0,0.0,62,0.00,,---,0.00,VWS V14.01,2013-03-21 10:55:00,
2013-03-21 05:00:00,34.2,22.5,29.70,SW,217,0.0,0.0,62,0.00,,---,0.00,VWS V14.01,2013-03-21 11:00:00,
2013-03-21 05:05:00,34.1,22.8,29.70,SW,217,0.0,0.0,63,0.00,,---,0.00,VWS V14.01,2013-03-21 11:05:00,
2013-03-21 05:10:00,34.0,22.7,29.70,SW,217,0.0,0.0,63,0.00,,---,0.00,VWS V14.01,2013-03-21 11:10:00,
2013-03-21 05:15:00,33.8,22.5,29.69,SW,217,0.0,0.0,63,0.00,,---,0.00,VWS V14.01,2013-03-21 11:15:00,
2013-03-21 05:20:00,33.7,22.5,29.70,SW,217,0.0,0.0,63,0.00,,---,0.00,VWS V14.01,2013-03-21 11:20:00,
2013-03-21 05:25:00,33.6,22.4,29.69,SW,217,0.0,0.0,63,0.00,,---,0.00,VWS V14.01,2013-03-21 11:25:00,
2013-03-21 05:30:00,33.5,22.6,29.69,SW,217,0.0,0.0,64,0.00,,---,0.00,VWS V14.01,2013-03-21 11:30:00,
2013-03-21 05:35:00,33.4,22.5,29.69,SW,217,0.0,0.0,64,0.00,,---,0.00,VWS V14.01,2013-03-21 11:35:00,
2013-03-21 05:40:00,33.4,22.5,29.69,SW,217,0.0,0.0,64,0.00,,---,0.00,VWS V14.01,2013-03-21 11:40:00,
2013-03-21 05:45:00,33.4,22.9,29.68,SW,217,0.0,0.0,65,0.00,,---,0.00,VWS V14.01,2013-03-21 11:45:00,
2013-03-21 05:50:00,33.3,22.8,29.69,SW,217,0.0,0.0,65,0.00,,---,0.00,VWS V14.01,2013-03-21 11:50:00,
2013-03-21 05:55:00,33.3,22.8,29.68,SW,217,0.0,0.0,65,0.00,,---,0.00,VWS V14.01,2013-03-21 11:55:00,
2013-03-21 06:00:00,33.4,22.9,29.68,SW,217,0.0,0.0,65,0.00,,---,0.00,VWS V14.01,2013-03-21 12:00:00,
2013-03-21 06:05:00,33.4,22.9,29.68,SW,217,0.0,0.0,65,0.00,,---,0.00,VWS V14.01,2013-03-21 12:05:00,
2013-03-21 06:10:00,33.4,22.9,29.68,SW,217,0.0,0.0,65,0.00,,---,0.00,VWS V14.01,2013-03-21 12:10:00,
2013-03-21 06:15:00,33.5,23.0,29.67,SW,217,0.0,0.0,65,0.00,,---,0.00,VWS V14.01,2013-03-21 12:15:00,
2013-03-21 06:20:00,33.7,23.2,29.67,SW,217,0.0,0.0,65,0.00,,---,0.00,VWS V14.01,2013-03-21 12:20:00,
2013-03-21 06:25:00,33.9,23.4,29.68,SW,217,0.0,0.0,65,0.00,,---,0.00,VWS V14.01,2013-03-21 12:25:00,
2013-03-21 06:30:00,34.2,23.3,29.67,SW,217,0.0,0.0,64,0.00,,---,0.00,VWS V14.01,2013-03-21 12:30:00,
2013-03-21 06:35:00,34.4,23.9,29.67,SW,217,0.0,0.0,65,0.00,,---,0.00,VWS V14.01,2013-03-21 12:35:00,
2013-03-21 06:40:00,34.7,23.8,29.67,SW,217,0.0,0.0,64,0.00,,---,0.00,VWS V14.01,2013-03-21 12:40:00,
2013-03-21 06:45:00,35.0,23.7,29.67,SW,217,0.0,0.0,63,0.00,,---,0.00,VWS V14.01,2013-03-21 12:45:00,
2013-03-21 06:50:00,35.2,23.9,29.67,SW,217,0.0,0.0,63,0.00,,---,0.00,VWS V14.01,2013-03-21 12:50:00,
2013-03-21 06:55:00,35.3,24.0,29.67,SW,217,0.0,0.0,63,0.00,,---,0.00,VWS V14.01,2013-03-21 12:55:00,
2013-03-21 07:00:00,35.3,24.0,29.67,SW,217,0.0,0.0,63,0.00,,---,0.00,VWS V14.01,2013-03-21 13:00:00,
2013-03-21 07:05:00,35.4,24.1,29.66,SW,217,0.0,0.0,63,0.00,,---,0.00,VWS V14.01,2013-03-21 13:05:00,
2013-03-21 07:10:00,35.6,23.9,29.65,SW,217,0.0,0.0,62,0.00,,---,0.00,VWS V14.01,2013-03-21 13:10:00,
2013-03-21 07:15:00,35.8,24.1,29.65,SW,217,0.0,0.0,62,0.00,,---,0.00,VWS V14.01,2013-03-21 13:15:00,
2013-03-21 07:20:00,36.2,24.1,29.66,SW,217,0.0,0.0,61,0.00,,---,0.00,VWS V14.01,2013-03-21 13:20:00,
2013-03-21 07:25:00,36.4,24.2,29.65,SW,217,0.0,0.0,61,0.00,,---,0.00,VWS V14.01,2013-03-21 13:25:00,
2013-03-21 07:30:00,36.6,24.4,29.65,SW,217,0.0,0.0,61,0.00,,---,0.00,VWS V14.01,2013-03-21 13:30:00,
2013-03-21 07:35:00,36.7,24.5,29.65,SW,217,0.0,0.0,61,0.00,,---,0.00,VWS V14.01,2013-03-21 13:35:00,
2013-03-21 07:40:00,37.0,24.4,29.65,SW,217,0.0,0.0,60,0.00,,---,0.00,VWS V14.01,2013-03-21 13:40:00,
2013-03-21 07:45:00,37.4,24.8,29.64,SW,217,0.0,0.0,60,0.00,,---,0.00,VWS V14.01,2013-03-21 13:45:00,
2013-03-21 07:50:00,37.7,24.7,29.65,SW,217,0.0,0.0,59,0.00,,---,0.00,VWS V14.01,2013-03-21 13:50:00,
2013-03-21 07:55:00,37.9,24.9,29.65,SW,217,0.0,0.0,59,0.00,,---,0.00,VWS V14.01,2013-03-21 13:55:00,
2013-03-21 08:00:00,38.0,25.0,29.64,SW,217,0.0,0.0,59,0.00,,---,0.00,VWS V14.01,2013-03-21 14:00:00,
2013-03-21 08:05:00,38.2,25.1,29.64,SW,217,0.0,0.0,59,0.00,,---,0.00,VWS V14.01,2013-03-21 14:05:00,
2013-03-21 08:10:00,38.4,25.3,29.65,SW,217,0.0,0.0,59,0.00,,---,0.00,VWS V14.01,2013-03-21 14:10:00,
2013-03-21 08:15:00,38.6,25.1,29.64,SW,217,0.0,0.0,58,0.00,,---,0.00,VWS V14.01,2013-03-21 14:15:00,
2013-03-21 08:20:00,38.8,25.3,29.64,SW,217,0.0,0.0,58,0.00,,---,0.00,VWS V14.01,2013-03-21 14:20:00,
2013-03-21 08:25:00,39.0,25.5,29.64,SW,217,0.0,0.0,58,0.00,,---,0.00,VWS V14.01,2013-03-21 14:25:00,
2013-03-21 08:30:00,39.1,25.6,29.64,SW,217,0.0,0.0,58,0.00,,---,0.00,VWS V14.01,2013-03-21 14:30:00,
2013-03-21 08:35:00,39.3,25.8,29.64,SW,217,0.0,0.0,58,0.00,,---,0.00,VWS V14.01,2013-03-21 14:35:00,
2013-03-21 08:40:00,39.4,25.5,29.64,SW,217,0.0,0.0,57,0.00,,---,0.00,VWS V14.01,2013-03-21 14:40:00,
2013-03-21 08:45:00,39.5,26.0,29.63,SW,217,0.0,0.0,58,0.00,,---,0.00,VWS V14.01,2013-03-21 14:45:00,
2013-03-21 08:50:00,39.6,26.1,29.64,SW,217,0.0,0.0,58,0.00,,---,0.00,VWS V14.01,2013-03-21 14:50:00,
2013-03-21 08:55:00,39.8,26.2,29.64,SW,217,0.0,0.0,58,0.00,,---,0.00,VWS V14.01,2013-03-21 14:55:00,
2013-03-21 09:00:00,39.9,27.2,29.64,SW,217,0.0,0.0,60,0.00,,---,0.00,VWS V14.01,2013-03-21 15:00:00,
2013-03-21 09:05:00,40.1,27.4,29.63,SW,217,0.0,0.0,60,0.00,,---,0.00,VWS V14.01,2013-03-21 15:05:00,
2013-03-21 09:10:00,40.4,26.8,29.64,NW,309,0.0,0.0,58,0.00,,---,0.00,VWS V14.01,2013-03-21 15:10:00,
2013-03-21 09:15:00,40.8,26.8,29.63,NW,307,0.0,0.0,57,0.00,,---,0.00,VWS V14.01,2013-03-21 15:15:00,
2013-03-21 09:20:00,41.4,26.5,29.63,NW,307,0.0,0.0,55,0.00,,---,0.00,VWS V14.01,2013-03-21 15:20:00,
2013-03-21 09:24:00,42.0,27.0,29.63,NW,307,0.0,0.0,55,0.00,,---,0.00,VWS V14.01,2013-03-21 15:24:00,
2013-03-21 09:29:00,42.6,27.1,29.62,NE,55,0.0,1.0,54,0.00,,---,0.00,VWS V14.01,2013-03-21 15:29:00,
2013-03-21 09:34:00,43.2,26.8,29.62,ESE,103,0.0,1.0,52,0.00,,---,0.00,VWS V14.01,2013-03-21 15:34:00,
2013-03-21 09:39:00,43.6,27.1,29.61,ESE,103,0.0,0.0,52,0.00,,---,0.00,VWS V14.01,2013-03-21 15:39:00,
2013-03-21 09:44:00,43.9,27.4,29.61,ESE,103,0.0,0.0,52,0.00,,---,0.00,VWS V14.01,2013-03-21 15:44:00,
2013-03-21 09:49:00,44.2,26.8,29.60,ESE,103,0.0,0.0,50,0.00,,---,0.00,VWS V14.01,2013-03-21 15:49:00,
2013-03-21 09:54:00,44.5,26.5,29.60,ESE,103,0.0,0.0,49,0.00,,---,0.00,VWS V14.01,2013-03-21 15:54:00,
2013-03-21 09:59:00,44.9,26.4,29.60,ESE,103,0.0,0.0,48,0.00,,---,0.00,VWS V14.01,2013-03-21 15:59:00,
2013-03-21 10:04:00,45.3,26.8,29.60,South,186,0.0,0.0,48,0.00,,---,0.00,VWS V14.01,2013-03-21 16:04:00,
2013-03-21 10:09:00,45.8,26.7,29.60,South,188,0.0,0.0,47,0.00,,---,0.00,VWS V14.01,2013-03-21 16:09:00,
2013-03-21 10:14:00,46.2,27.1,29.59,SSE,148,0.0,0.0,47,0.00,,---,0.00,VWS V14.01,2013-03-21 16:14:00,
2013-03-21 10:19:00,46.6,26.9,29.59,SSE,153,0.0,0.0,46,0.00,,---,0.00,VWS V14.01,2013-03-21 16:19:00,
2013-03-21 10:24:00,47.0,27.3,29.59,SSE,153,0.0,0.0,46,0.00,,---,0.00,VWS V14.01,2013-03-21 16:24:00,
2013-03-21 10:29:00,47.5,27.2,29.58,SSE,153,0.0,0.0,45,0.00,,---,0.00,VWS V14.01,2013-03-21 16:29:00,
2013-03-21 10:34:00,48.1,27.2,29.58,SSE,153,0.0,0.0,44,0.00,,---,0.00,VWS V14.01,2013-03-21 16:34:00,
2013-03-21 10:39:00,48.8,27.9,29.58,SSE,155,0.0,1.0,44,0.00,,---,0.00,VWS V14.01,2013-03-21 16:39:00,
2013-03-21 10:44:00,49.5,28.0,29.57,SE,146,0.0,0.0,43,0.00,,---,0.00,VWS V14.01,2013-03-21 16:44:00,
2013-03-21 10:49:00,50.3,27.5,29.57,SSE,148,0.0,1.0,41,0.00,,---,0.00,VWS V14.01,2013-03-21 16:49:00,
2013-03-21 10:54:00,51.3,27.8,29.57,SSE,150,4.0,4.0,40,0.00,,---,0.00,VWS V14.01,2013-03-21 16:54:00,
2013-03-21 10:59:00,52.2,28.6,29.56,SSE,150,4.0,7.0,40,0.00,,---,0.00,VWS V14.01,2013-03-21 16:59:00,
2013-03-21 11:04:00,53.2,28.3,29.56,SSE,155,2.0,3.0,38,0.00,,---,0.00,VWS V14.01,2013-03-21 17:04:00,
2013-03-21 11:09:00,54.1,28.4,29.56,SSE,162,0.0,3.0,37,0.00,,---,0.00,VWS V14.01,2013-03-21 17:09:00,
2013-03-21 11:14:00,54.8,29.0,29.56,ESE,102,1.0,4.0,37,0.00,,---,0.00,VWS V14.01,2013-03-21 17:14:00,
2013-03-21 11:19:00,55.5,29.7,29.55,SSW,192,0.0,2.0,37,0.00,,---,0.00,VWS V14.01,2013-03-21 17:19:00,
2013-03-21 11:24:00,56.1,28.8,29.54,SSE,165,1.0,5.0,35,0.00,,---,0.00,VWS V14.01,2013-03-21 17:24:00,
2013-03-21 11:29:00,56.4,29.1,29.54,SSW,209,3.0,3.0,35,0.00,,---,0.00,VWS V14.01,2013-03-21 17:29:00,
2013-03-21 11:34:00,56.7,29.4,29.54,South,185,2.0,2.0,35,0.00,,---,0.00,VWS V14.01,2013-03-21 17:34:00,
2013-03-21 11:39:00,56.8,29.5,29.54,East,100,3.0,5.0,35,0.00,,---,0.00,VWS V14.01,2013-03-21 17:39:00,
2013-03-21 11:44:00,57.1,29.0,29.53,SSE,154,1.0,5.0,34,0.00,,---,0.00,VWS V14.01,2013-03-21 17:44:00,
2013-03-21 11:49:00,57.5,29.4,29.53,SSE,161,4.0,6.0,34,0.00,,---,0.00,VWS V14.01,2013-03-21 17:49:00,
2013-03-21 11:54:00,57.7,28.8,29.53,SW,228,0.0,2.0,33,0.00,,---,0.00,VWS V14.01,2013-03-21 17:54:00,
2013-03-21 11:59:00,57.8,29.6,29.52,ESE,107,2.0,5.0,34,0.00,,---,0.00,VWS V14.01,2013-03-21 17:59:00,
2013-03-21 12:04:00,57.9,29.0,29.52,SSE,152,0.0,0.0,33,0.00,,---,0.00,VWS V14.01,2013-03-21 18:04:00,
2013-03-21 12:09:00,58.5,29.5,29.52,SSE,152,0.0,1.0,33,0.00,,---,0.00,VWS V14.01,2013-03-21 18:09:00,
2013-03-21 12:14:00,59.0,30.0,29.51,SW,225,4.0,4.0,33,0.00,,---,0.00,VWS V14.01,2013-03-21 18:14:00,
2013-03-21 12:19:00,59.4,29.6,29.51,SSE,150,1.0,1.0,32,0.00,,---,0.00,VWS V14.01,2013-03-21 18:19:00,
2013-03-21 12:24:00,59.6,29.7,29.51,East,82,1.0,1.0,32,0.00,,---,0.00,VWS V14.01,2013-03-21 18:24:00,
2013-03-21 12:29:00,59.7,29.8,29.51,East,83,0.0,0.0,32,0.00,,---,0.00,VWS V14.01,2013-03-21 18:29:00,
2013-03-21 12:34:00,59.9,28.4,29.51,SSE,148,3.0,3.0,30,0.00,,---,0.00,VWS V14.01,2013-03-21 18:34:00,
2013-03-21 12:39:00,59.8,28.3,29.51,South,171,0.0,1.0,30,0.00,,---,0.00,VWS V14.01,2013-03-21 18:39:00,
2013-03-21 12:44:00,59.5,28.1,29.50,SSW,202,0.0,4.0,30,0.00,,---,0.00,VWS V14.01,2013-03-21 18:44:00,
2013-03-21 12:49:00,59.0,26.8,29.50,West,270,0.0,2.0,29,0.00,,---,0.00,VWS V14.01,2013-03-21 18:49:00,
2013-03-21 12:54:00,58.7,26.5,29.50,SE,141,1.0,3.0,29,0.00,,---,0.00,VWS V14.01,2013-03-21 18:54:00,
2013-03-21 12:59:00,58.2,27.7,29.50,SSE,166,0.0,0.0,31,0.00,,---,0.00,VWS V14.01,2013-03-21 18:59:00,
2013-03-21 13:04:00,58.1,26.9,29.50,SSE,165,0.0,2.0,30,0.00,,---,0.00,VWS V14.01,2013-03-21 19:04:00,
2013-03-21 13:09:00,57.8,25.8,29.50,WSW,254,3.0,3.0,29,0.00,,---,0.00,VWS V14.01,2013-03-21 19:09:00,
2013-03-21 13:14:00,57.7,26.5,29.49,NE,39,0.0,0.0,30,0.00,,---,0.00,VWS V14.01,2013-03-21 19:14:00,
2013-03-21 13:19:00,57.7,26.5,29.49,West,270,0.0,0.0,30,0.00,,---,0.00,VWS V14.01,2013-03-21 19:19:00,
2013-03-21 13:24:00,58.1,26.0,29.49,West,261,1.0,1.0,29,0.00,,---,0.00,VWS V14.01,2013-03-21 19:24:00,
2013-03-21 13:29:00,58.4,25.5,29.48,SW,222,0.0,1.0,28,0.00,,---,0.00,VWS V14.01,2013-03-21 19:29:00,
2013-03-21 13:34:00,58.6,25.6,29.48,West,263,3.0,3.0,28,0.00,,---,0.00,VWS V14.01,2013-03-21 19:34:00,
2013-03-21 13:39:00,58.6,24.8,29.48,SSW,204,1.0,2.0,27,0.00,,---,0.00,VWS V14.01,2013-03-21 19:39:00,
2013-03-21 13:44:00,58.4,24.6,29.49,SW,236,2.0,9.0,27,0.00,,---,0.00,VWS V14.01,2013-03-21 19:44:00,
2013-03-21 13:49:00,58.1,26.0,29.49,WNW,300,3.0,5.0,29,0.00,,---,0.00,VWS V14.01,2013-03-21 19:49:00,
2013-03-21 13:54:00,57.4,25.4,29.50,WNW,302,4.0,15.0,29,0.00,,---,0.00,VWS V14.01,2013-03-21 19:54:00,
2013-03-21 13:59:00,55.2,30.7,29.51,WSW,242,0.0,0.0,39,0.00,,---,0.00,VWS V14.01,2013-03-21 19:59:00,
2013-03-21 14:04:00,53.9,29.5,29.53,NW,318,0.0,6.0,39,0.00,,---,0.00,VWS V14.01,2013-03-21 20:04:00,
2013-03-21 14:09:00,52.9,28.0,29.53,WNW,289,6.0,11.0,38,0.00,,---,0.00,VWS V14.01,2013-03-21 20:09:00,
2013-03-21 14:14:00,52.2,26.7,29.54,NW,310,4.0,10.0,37,0.00,,---,0.00,VWS V14.01,2013-03-21 20:14:00,
2013-03-21 14:19:00,51.9,26.5,29.54,WSW,257,2.0,4.0,37,0.00,,---,0.00,VWS V14.01,2013-03-21 20:19:00,
2013-03-21 14:24:00,51.9,27.7,29.55,West,265,9.0,11.0,39,0.00,,---,0.00,VWS V14.01,2013-03-21 20:24:00,
2013-03-21 14:29:00,51.8,27.6,29.55,WNW,299,5.0,12.0,39,0.00,,---,0.00,VWS V14.01,2013-03-21 20:29:00,
2013-03-21 14:34:00,51.3,27.2,29.55,NW,311,2.0,9.0,39,0.00,,---,0.00,VWS V14.01,2013-03-21 20:34:00,
2013-03-21 14:39:00,51.1,30.5,29.56,NW,314,3.0,11.0,45,0.00,,---,0.00,VWS V14.01,2013-03-21 20:39:00,
2013-03-21 14:44:00,51.0,31.5,29.56,South,175,5.0,6.0,47,0.00,,---,0.00,VWS V14.01,2013-03-21 20:44:00,
2013-03-21 14:49:00,50.6,32.2,29.57,WNW,298,1.0,3.0,49,0.00,,---,0.00,VWS V14.01,2013-03-21 20:49:00,
2013-03-21 14:54:00,50.1,32.7,29.57,NW,317,1.0,3.0,51,0.00,,---,0.00,VWS V14.01,2013-03-21 20:54:00,
2013-03-21 14:59:00,49.0,33.5,29.58,WSW,244,2.0,4.0,55,0.00,,---,0.00,VWS V14.01,2013-03-21 20:59:00,
2013-03-21 15:04:00,47.9,33.4,29.58,NW,326,2.0,2.0,57,0.00,,---,0.00,VWS V14.01,2013-03-21 21:04:00,
2013-03-21 15:09:00,47.5,33.5,29.58,NE,45,2.0,2.0,58,0.00,,---,0.00,VWS V14.01,2013-03-21 21:09:00,
2013-03-21 15:14:00,47.4,33.4,29.58,NNW,327,0.0,0.0,58,0.00,,---,0.00,VWS V14.01,2013-03-21 21:14:00,
2013-03-21 15:19:00,47.4,33.4,29.58,NNW,342,0.0,1.0,58,0.00,,---,0.00,VWS V14.01,2013-03-21 21:19:00,
2013-03-21 15:24:00,47.6,34.0,29.58,East,86,0.0,4.0,59,0.00,,---,0.00,VWS V14.01,2013-03-21 21:24:00,
2013-03-21 15:29:00,48.0,33.5,29.58,East,79,2.0,3.0,57,0.00,,---,0.00,VWS V14.01,2013-03-21 21:29:00,
2013-03-21 15:34:00,48.2,33.7,29.58,East,84,0.0,0.0,57,0.00,,---,0.00,VWS V14.01,2013-03-21 21:34:00,
2013-03-21 15:39:00,48.6,33.6,29.58,East,87,0.0,0.0,56,0.00,,---,0.00,VWS V14.01,2013-03-21 21:39:00,
2013-03-21 15:44:00,48.8,33.4,29.58,ENE,69,0.0,0.0,55,0.00,,---,0.00,VWS V14.01,2013-03-21 21:44:00,
2013-03-21 15:49:00,48.9,33.5,29.58,NE,48,0.0,1.0,55,0.00,,---,0.00,VWS V14.01,2013-03-21 21:49:00,
2013-03-21 15:54:00,48.8,33.4,29.58,NNE,24,1.0,2.0,55,0.00,,---,0.00,VWS V14.01,2013-03-21 21:54:00,
2013-03-21 15:59:00,48.6,33.6,29.58,NNW,335,0.0,2.0,56,0.00,,---,0.00,VWS V14.01,2013-03-21 21:59:00,
2013-03-21 16:04:00,48.6,34.5,29.58,ENE,74,0.0,2.0,58,0.00,,---,0.00,VWS V14.01,2013-03-21 22:04:00,
2013-03-21 16:09:00,49.2,34.6,29.58,NNE,28,1.0,2.0,57,0.00,,---,0.00,VWS V14.01,2013-03-21 22:09:00,
2013-03-21 16:14:00,50.0,34.5,29.58,WNW,290,2.0,2.0,55,0.00,,---,0.00,VWS V14.01,2013-03-21 22:14:00,
2013-03-21 16:19:00,50.8,34.8,29.59,ESE,111,1.0,4.0,54,0.00,,---,0.00,VWS V14.01,2013-03-21 22:19:00,
2013-03-21 16:24:00,51.2,35.1,29.58,East,83,1.0,2.0,54,0.00,,---,0.00,VWS V14.01,2013-03-21 22:24:00,
2013-03-21 16:29:00,51.0,34.5,29.59,NE,43,2.0,2.0,53,0.00,,---,0.00,VWS V14.01,2013-03-21 22:29:00,
2013-03-21 16:34:00,50.7,34.7,29.59,ENE,78,3.0,3.0,54,0.00,,---,0.00,VWS V14.01,2013-03-21 22:34:00,
2013-03-21 16:39:00,50.3,34.3,29.59,ENE,67,0.0,0.0,54,0.00,,---,0.00,VWS V14.01,2013-03-21 22:39:00,
2013-03-21 16:44:00,50.1,34.6,29.59,ENE,63,0.0,1.0,55,0.00,,---,0.00,VWS V14.01,2013-03-21 22:44:00,
2013-03-21 16:49:00,50.0,35.4,29.59,ENE,57,0.0,0.0,57,0.00,,---,0.00,VWS V14.01,2013-03-21 22:49:00,
2013-03-21 16:54:00,50.1,35.5,29.58,NNW,340,1.0,4.0,57,0.00,,---,0.00,VWS V14.01,2013-03-21 22:54:00,
2013-03-21 16:59:00,50.4,35.8,29.59,ESE,105,5.0,9.0,57,0.00,,---,0.00,VWS V14.01,2013-03-21 22:59:00,
2013-03-21 17:04:00,50.2,35.6,29.59,ENE,74,0.0,1.0,57,0.00,,---,0.00,VWS V14.01,2013-03-21 23:04:00,
2013-03-21 17:09:00,50.1,35.0,29.60,NNW,334,2.0,3.0,56,0.00,,---,0.00,VWS V14.01,2013-03-21 23:09:00,
2013-03-21 17:14:00,49.7,34.7,29.60,East,91,2.0,3.0,56,0.00,,---,0.00,VWS V14.01,2013-03-21 23:14:00,
2013-03-21 17:19:00,49.4,34.8,29.60,ENE,64,2.0,2.0,57,0.00,,---,0.00,VWS V14.01,2013-03-21 23:19:00,
2013-03-21 17:24:00,49.7,35.1,29.61,ENE,76,0.0,1.0,57,0.00,,---,0.00,VWS V14.01,2013-03-21 23:24:00,
2013-03-21 17:29:00,49.9,33.5,29.61,NNW,327,3.0,3.0,53,0.00,,---,0.00,VWS V14.01,2013-03-21 23:29:00,
2013-03-21 17:34:00,50.0,31.6,29.62,ENE,60,2.0,2.0,49,0.00,,---,0.00,VWS V14.01,2013-03-21 23:34:00,
2013-03-21 17:39:00,50.0,27.8,29.62,WSW,242,8.0,9.0,42,0.00,,---,0.00,VWS V14.01,2013-03-21 23:39:00,
2013-03-21 17:44:00,50.0,22.0,29.64,NNW,328,3.0,6.0,33,0.00,,---,0.00,VWS V14.01,2013-03-21 23:44:00,
2013-03-21 17:49:00,49.7,27.0,29.64,East,82,2.0,3.0,41,0.00,,---,0.00,VWS V14.01,2013-03-21 23:49:00,
2013-03-21 17:54:00,49.4,33.0,29.64,East,85,0.0,0.0,53,0.00,,---,0.00,VWS V14.01,2013-03-21 23:54:00,
2013-03-21 17:59:00,48.9,33.5,29.65,North,5,0.0,0.0,55,0.00,,---,0.00,VWS V14.01,2013-03-21 23:59:00,
2013-03-21 18:04:00,48.5,33.5,29.65,North,5,0.0,0.0,56,0.00,,---,0.00,VWS V14.01,2013-03-22 00:04:00,
2013-03-21 18:09:00,48.2,31.9,29.66,NW,310,1.0,2.0,53,0.00,,---,0.00,VWS V14.01,2013-03-22 00:09:00,
2013-03-21 18:14:00,47.8,27.0,29.66,NNW,340,2.0,2.0,44,0.00,,---,0.00,VWS V14.01,2013-03-22 00:14:00,
2013-03-21 18:19:00,47.6,31.3,29.67,East,80,3.0,4.0,53,0.00,,---,0.00,VWS V14.01,2013-03-22 00:19:00,
2013-03-21 18:24:00,46.5,31.7,29.68,ENE,70,0.0,0.0,56,0.00,,---,0.00,VWS V14.01,2013-03-22 00:24:00,
2013-03-21 18:29:00,46.0,27.4,29.68,ENE,72,0.0,3.0,48,0.00,,---,0.00,VWS V14.01,2013-03-22 00:29:00,
2013-03-21 18:34:00,45.6,17.5,29.68,ENE,73,0.0,0.0,32,0.00,,---,0.00,VWS V14.01,2013-03-22 00:34:00,
2013-03-21 18:39:00,45.7,15.3,29.69,NW,313,0.0,0.0,29,0.00,,---,0.00,VWS V14.01,2013-03-22 00:39:00,
2013-03-21 18:44:00,45.8,15.4,29.69,West,275,2.0,6.0,29,0.00,,---,0.00,VWS V14.01,2013-03-22 00:44:00,
2013-03-21 18:49:00,45.8,14.6,29.70,NNE,18,1.0,3.0,28,0.00,,---,0.00,VWS V14.01,2013-03-22 00:49:00,
2013-03-21 18:54:00,45.8,14.6,29.70,WNW,302,0.0,2.0,28,0.00,,---,0.00,VWS V14.01,2013-03-22 00:54:00,
2013-03-21 18:59:00,45.6,13.6,29.71,NW,306,3.0,5.0,27,0.00,,---,0.00,VWS V14.01,2013-03-22 00:59:00,
2013-03-21 19:04:00,45.5,13.5,29.70,NNW,335,0.0,3.0,27,0.00,,---,0.00,VWS V14.01,2013-03-22 01:04:00,
2013-03-21 19:09:00,45.2,14.1,29.70,NNW,328,2.0,4.0,28,0.00,,---,0.00,VWS V14.01,2013-03-22 01:09:00,
2013-03-21 19:14:00,45.1,12.3,29.70,West,277,3.0,5.0,26,0.00,,---,0.00,VWS V14.01,2013-03-22 01:14:00,
2013-03-21 19:19:00,45.2,11.5,29.71,NW,317,1.0,5.0,25,0.00,,---,0.00,VWS V14.01,2013-03-22 01:19:00,
2013-03-21 19:24:00,45.1,11.4,29.71,WNW,298,4.0,11.0,25,0.00,,---,0.00,VWS V14.01,2013-03-22 01:24:00,
2013-03-21 19:29:00,45.1,11.4,29.72,WNW,285,4.0,6.0,25,0.00,,---,0.00,VWS V14.01,2013-03-22 01:29:00,
2013-03-21 19:34:00,45.0,12.2,29.73,WNW,286,13.0,13.0,26,0.00,,---,0.00,VWS V14.01,2013-03-22 01:34:00,
2013-03-21 19:39:00,44.9,12.1,29.74,WNW,302,2.0,4.0,26,0.00,,---,0.00,VWS V14.01,2013-03-22 01:39:00,
2013-03-21 19:44:00,44.6,12.7,29.74,WNW,299,3.0,4.0,27,0.00,,---,0.00,VWS V14.01,2013-03-22 01:44:00,
2013-03-21 19:49:00,44.3,13.3,29.74,NW,325,3.0,3.0,28,0.00,,---,0.00,VWS V14.01,2013-03-22 01:49:00,
2013-03-21 19:54:00,44.0,13.0,29.74,NW,315,5.0,6.0,28,0.00,,---,0.00,VWS V14.01,2013-03-22 01:54:00,
2013-03-21 19:59:00,43.6,13.5,29.72,West,275,0.0,2.0,29,0.00,,---,0.00,VWS V14.01,2013-03-22 01:59:00,
2013-03-21 20:04:00,43.3,14.0,29.72,WNW,300,9.0,14.0,30,0.00,,---,0.00,VWS V14.01,2013-03-22 02:04:00,
2013-03-21 20:09:00,43.2,13.9,29.71,NW,309,3.0,4.0,30,0.00,,---,0.00,VWS V14.01,2013-03-22 02:09:00,
2013-03-21 20:14:00,43.1,14.5,29.72,NW,315,4.0,6.0,31,0.00,,---,0.00,VWS V14.01,2013-03-22 02:14:00,
2013-03-21 20:19:00,43.0,14.4,29.73,WNW,284,2.0,8.0,31,0.00,,---,0.00,VWS V14.01,2013-03-22 02:19:00,
2013-03-21 20:24:00,42.9,15.1,29.73,NW,319,3.0,4.0,32,0.00,,---,0.00,VWS V14.01,2013-03-22 02:24:00,
2013-03-21 20:29:00,42.7,14.9,29.74,NW,319,9.0,10.0,32,0.00,,---,0.00,VWS V14.01,2013-03-22 02:29:00,
2013-03-21 20:34:00,42.7,14.9,29.74,NW,307,4.0,4.0,32,0.00,,---,0.00,VWS V14.01,2013-03-22 02:34:00,
2013-03-21 20:39:00,42.6,14.8,29.74,WSW,257,1.0,2.0,32,0.00,,---,0.00,VWS V14.01,2013-03-22 02:39:00,
2013-03-21 20:44:00,42.4,13.9,29.75,NNE,33,1.0,9.0,31,0.00,,---,0.00,VWS V14.01,2013-03-22 02:44:00,
2013-03-21 20:49:00,42.3,14.6,29.76,NW,307,5.0,5.0,32,0.00,,---,0.00,VWS V14.01,2013-03-22 02:49:00,
2013-03-21 20:54:00,42.2,14.5,29.76,WNW,298,5.0,5.0,32,0.00,,---,0.00,VWS V14.01,2013-03-22 02:54:00,
2013-03-21 20:59:00,42.1,14.4,29.76,WNW,300,1.0,4.0,32,0.00,,---,0.00,VWS V14.01,2013-03-22 02:59:00,
2013-03-21 21:04:00,42.0,14.3,29.76,NW,313,0.0,2.0,32,0.00,,---,0.00,VWS V14.01,2013-03-22 03:04:00,
2013-03-21 21:09:00,41.8,14.8,29.77,WSW,245,0.0,4.0,33,0.00,,---,0.00,VWS V14.01,2013-03-22 03:09:00,
2013-03-21 21:14:00,41.8,14.8,29.77,NW,321,3.0,6.0,33,0.00,,---,0.00,VWS V14.01,2013-03-22 03:14:00,
2013-03-21 21:19:00,41.8,14.8,29.77,NW,308,0.0,2.0,33,0.00,,---,0.00,VWS V14.01,2013-03-22 03:19:00,
2013-03-21 21:24:00,41.7,14.7,29.77,NW,311,3.0,10.0,33,0.00,,---,0.00,VWS V14.01,2013-03-22 03:24:00,
2013-03-21 21:29:00,41.7,14.7,29.77,West,263,4.0,5.0,33,0.00,,---,0.00,VWS V14.01,2013-03-22 03:29:00,
2013-03-21 21:34:00,41.7,14.7,29.77,NW,313,5.0,5.0,33,0.00,,---,0.00,VWS V14.01,2013-03-22 03:34:00,
2013-03-21 21:39:00,41.7,14.7,29.78,NW,317,0.0,2.0,33,0.00,,---,0.00,VWS V14.01,2013-03-22 03:39:00,
2013-03-21 21:44:00,41.5,15.2,29.78,NNW,332,0.0,2.0,34,0.00,,---,0.00,VWS V14.01,2013-03-22 03:44:00,
2013-03-21 21:49:00,41.3,15.1,29.78,NW,306,1.0,3.0,34,0.00,,---,0.00,VWS V14.01,2013-03-22 03:49:00,
2013-03-21 21:54:00,41.2,15.0,29.78,NW,313,0.0,5.0,34,0.00,,---,0.00,VWS V14.01,2013-03-22 03:54:00,
2013-03-21 21:59:00,41.1,14.9,29.78,WNW,300,1.0,5.0,34,0.00,,---,0.00,VWS V14.01,2013-03-22 03:59:00,
2013-03-21 22:00:00,41.1,14.9,29.78,West,259,5.0,5.0,34,0.00,,---,0.00,VWS V14.01,2013-03-22 04:00:00,
2013-03-21 22:05:00,41.0,14.8,29.78,WNW,295,3.0,11.0,34,0.00,,---,0.00,VWS V14.01,2013-03-22 04:05:00,
2013-03-21 22:10:00,40.9,14.7,29.79,West,275,2.0,7.0,34,0.00,,---,0.00,VWS V14.01,2013-03-22 04:10:00,
2013-03-21 22:15:00,40.8,15.3,29.79,WNW,294,4.0,10.0,35,0.00,,---,0.00,VWS V14.01,2013-03-22 04:15:00,
2013-03-21 22:20:00,40.7,15.2,29.80,NW,308,0.0,2.0,35,0.00,,---,0.00,VWS V14.01,2013-03-22 04:20:00,
2013-03-21 22:25:00,40.5,15.7,29.80,NW,309,4.0,10.0,36,0.00,,---,0.00,VWS V14.01,2013-03-22 04:25:00,
2013-03-21 22:30:00,40.4,15.6,29.80,WNW,295,2.0,9.0,36,0.00,,---,0.00,VWS V14.01,2013-03-22 04:30:00,
2013-03-21 22:35:00,40.3,15.5,29.81,West,279,3.0,5.0,36,0.00,,---,0.00,VWS V14.01,2013-03-22 04:35:00,
2013-03-21 22:40:00,40.2,14.8,29.81,NW,304,3.0,7.0,35,0.00,,---,0.00,VWS V14.01,2013-03-22 04:40:00,
2013-03-21 22:45:00,40.1,14.7,29.81,NNW,330,0.0,5.0,35,0.00,,---,0.00,VWS V14.01,2013-03-22 04:45:00,
2013-03-21 22:50:00,40.0,14.6,29.81,West,267,0.0,3.0,35,0.00,,---,0.00,VWS V14.01,2013-03-22 04:50:00,
2013-03-21 22:55:00,39.8,14.4,29.82,West,268,4.0,9.0,35,0.00,,---,0.00,VWS V14.01,2013-03-22 04:55:00,
2013-03-21 23:00:00,39.7,14.3,29.82,North,350,5.0,7.0,35,0.00,,---,0.00,VWS V14.01,2013-03-22 05:00:00,
2013-03-21 23:05:00,39.6,14.2,29.82,West,281,2.0,4.0,35,0.00,,---,0.00,VWS V14.01,2013-03-22 05:05:00,
2013-03-21 23:10:00,39.5,14.1,29.82,NW,309,4.0,5.0,35,0.00,,---,0.00,VWS V14.01,2013-03-22 05:10:00,
2013-03-21 23:15:00,39.4,14.0,29.82,NW,309,0.0,4.0,35,0.00,,---,0.00,VWS V14.01,2013-03-22 05:15:00,
2013-03-21 23:20:00,39.3,13.9,29.82,NW,307,6.0,6.0,35,0.00,,---,0.00,VWS V14.01,2013-03-22 05:20:00,
2013-03-21 23:25:00,39.1,13.8,29.82,West,271,1.0,3.0,35,0.00,,---,0.00,VWS V14.01,2013-03-22 05:25:00,
2013-03-21 23:30:00,39.1,13.1,29.82,NW,326,3.0,7.0,34,0.00,,---,0.00,VWS V14.01,2013-03-22 05:30:00,
2013-03-21 23:35:00,39.2,13.2,29.83,West,261,0.0,5.0,34,0.00,,---,0.00,VWS V14.01,2013-03-22 05:35:00,
2013-03-21 23:40:00,39.2,13.2,29.83,West,269,0.0,3.0,34,0.00,,---,0.00,VWS V14.01,2013-03-22 05:40:00,
2013-03-21 23:45:00,39.2,13.2,29.83,ENE,63,3.0,7.0,34,0.00,,---,0.00,VWS V14.01,2013-03-22 05:45:00,
2013-03-21 23:50:00,39.1,13.1,29.83,NW,312,2.0,7.0,34,0.00,,---,0.00,VWS V14.01,2013-03-22 05:50:00,
2013-03-21 23:55:00,39.1,13.8,29.83,NW,311,0.0,0.0,35,0.00,,---,0.00,VWS V14.01,2013-03-22 05:55:00,